Location: Home
(42.5358°N, 72.7383°W)
Time: 06:37:16
(UTC-05:00)

Courier 1B Rocket - Pass Details

Date: 03 December 2021
Orbit: 920 x 1202 km, 28.2° (Epoch: 25 January)

Event Time Altitude Azimuth Distance (km) Brightness Sun altitude
Rises 02:28:33 0° 251° (WSW) 3,547 - -49.7°
Reaches altitude 10° 02:32:06 10° 232° (SW) 2,607 - -49.1°
Maximum altitude 02:35:54 17° 193° (SSW) 2,171 - -48.4°
Drops below altitude 10° 02:39:46 10° 155° (SSE) 2,655 - -47.7°
Exits shadow 02:42:52 - 138° (SE) 3,473 8.1 -47.1°
Sets 02:43:26 0° 136° (SE) 3,641 8.3 -47.0°
